Regional Weather Roundup
Issued by NWS Newport/Morehead, NC

Current Version | Previous Version | Text Only | Print | Product List | Glossary On
Versions: 1 2 3 4 5 6 7 8 9 10 11 12 13 14 15 16 17 18 19 20 21 22 23 24 25 26 27 28 29 30 31 32 33 34 35 36 37 38 39 40 41 42 43 44 45 46 47 48 49 50
000
ASUS42 KMHX 291213
RWRMHX
WEATHER ROUNDUP FOR EASTERN NORTH CAROLINA
NATIONAL WEATHER SERVICE NEWPORT/MOREHEAD CITY NC
800 AM EDT MON AUG 29 2016

NOTE: "FAIR" INDICATES FEW OR NO CLOUDS BELOW 12,000 FEET
WITH NO SIGNIFICANT WEATHER AND/OR OBSTRUCTIONS TO VISIBILITY

NCZ015>017-031-032-045>047-102-103-291300-
NORTH COAST

CITY           SKY/WX    TMP DP  RH WIND       PRES   REMARKS
EDENTON        PTSUNNY  N/A N/A N/A N7        30.11R
ELIZABETH CITY MOSUNNY   79  76  90 NE9       30.10R
KITTY HAWK     SUNNY     80  80  99 CALM      30.08R
MANTEO         SUNNY     79  78  97 E9        30.09R

$$

NCZ045>047-081-094-103-104-291300-
CENTRAL COAST

CITY           SKY/WX    TMP DP  RH WIND       PRES   REMARKS
FRISCO         SUNNY     82  75  79 NE3       30.07R

$$

NCZ095-097-098-100-101-291300-
SOUTHERN COAST

CITY           SKY/WX    TMP DP  RH WIND       PRES   REMARKS
BEAUFORT       SUNNY     79  76  90 N7        30.07R
CEDAR ISLAND   NOT AVBL
JACKSONVILLE   CLOUDY    77  74  90 NE6       30.08S
PINEY ISLAND   NOT AVBL
WILMINGTON     CLOUDY    76  74  93 NE7       30.08R


$$

NCZ011>013-027>030-043-044-078>080-089-090>093-098-291300-
COASTAL PLAIN

CITY           SKY/WX    TMP DP  RH WIND       PRES   REMARKS
AHOSKIE        PTSUNNY   70  69  96 N3        30.13R
CLINTON        CLOUDY    74  73  97 NE6       30.12R
ELIZABETHTOWN  CLOUDY    74  74 100 CALM      30.11R FOG
GOLDSBORO      CLOUDY    74  74 100 NE6       30.10R
GREENVILLE     CLOUDY    73  73 100 N5        30.12S FOG
HAVELOCK       CLOUDY    78  75  90 N8        30.09S
KENANSVILLE    CLOUDY    75  73  94 N6        30.11R
KINSTON        CLOUDY    73  73 100 N5        30.12R FOG
NEW BERN       CLOUDY    76  74  93 NE6       30.10R FOG
RICHLANDS      CLOUDY    75  73  94 N5        30.10R FOG
ROCKY MOUNT    CLOUDY    72  72 100 N6        30.12S
WASHINGTON     CLOUDY    74  73  97 N3        30.10S FOG
WHITEVILLE     CLOUDY    76  73  91 NE5       30.10R

$$

AMZ130-135-150-152-154-156-158-170-250-252-270-ANZ085-086-088-633-658-670-291300-
MARINE OBSERVATIONS

STATION/POSITION TIME  TEMP    WIND        PRES    WAVE   SWELL
                       AIR SEA DIR/SP/G            HT/PER HT/PER
                 (UTC) (F)     (DEG/KT/KT) (MB)    (FT/S) (FT/S)
CHESAPEAKE LIGHT NOT AVBL
64 E VA BEACH    1150   81 80   40/ 12/ 16 1018.6    5/ 8   3/ 8
DUCK             1100   79 78   80/  5/  6 1017.7
2 E DUCK         1111      78                N/A     4/14   2/14
OREGON INLET     1100   79 80   10/  5/  6 1018.0
13E OREGON INLT  1200      80                N/A     5/ 8   5/ 8
HATTERAS CG      1100   80 82   60/  5/  8 1017.6
DIAMOND BUOY     1150   83 84   70/ 14/ 17 1017.7    7/ 9   7/ 9
CAPE LOOKOUT     1200   80      10/  7/  8 1017.7
BEAUFORT LAB     1100   77 81   20/  4/  5 1017.4
30 SE NEW RVR IN 1108   81 84   50/ 14/ 17 1017.4
30 SE NEW RVR IN 1125      84                N/A     4/13   2/13
27 SE WRIGHTSVLE 1108   78 83   70/  4/  8 1017.7
5 SE WRIGHTSVLE  NOT AVBL
225 S CAPE HAT   1150   82 84  330/ 12/ 14 1016.0    5/13   5/13
41 SE CHARLESTON 1150   79 85  240/  6/ 10 1017.4    4/ 8   3/ 8

$$




USA.gov is the U.S. government's official web portal to all federal, state and local government web resources and services.